Miscellaneous Local Product
Issued by NWS North Platte, NE

Home | Current Version | Previous Version | Text Only | Print | Product List | Glossary On
Versions: 1 2 3 4 5 6 7 8 9 10 11 12 13 14 15 16 17 18 19 20 21 22 23 24 25 26 27 28 29 30 31 32 33 34 35 36 37 38 39 40 41 42 43 44 45 46 47 48 49 50
000
AXUS43 KLBF 302210
MISLBF


WESTERN AND NORTH CENTRAL NEBRASKA HOURLY WEATHER ROUNDUP
NATIONAL WEATHER SERVICE NORTH PLATTE NE
500 PM CDT SAT AUG 30 2014

***STATIONS NOT REPORTING VARIABLES SUCH AS SKY/WEATHER OR
PRESSURE ARE PROVIDED BY THE NEBRASKA DEPARTMENT OF
ROADS...RAWS...AND APRS NETWORKS...AND ARE NOT UNDER
NATIONAL WEATHER SERVICE QUALITY CONTROL***

...OBSERVATIONS IN AND NEAR THE EASTERN PANHANDLE OF NEBRASKA...

CITY           SKY/WX    TMP DP  RH WIND       PRES   REMARKS
PINE RIDGE     SUNNY     89  54  30 S17G25    29.74F
CHADRON        SUNNY     94  44  17 SW16      29.71F HX  90
ALLIANCE       SUNNY     88  50  27 S18G28    29.80F
SIDNEY         SUNNY     89  43  20 S16G26    29.88F
WHITECLAY        N/A     87  54  31 S14         N/A
RUSHVILLE        N/A     93  46  19 S21         N/A  HX  90
GORDON           N/A     93  54  26 S23         N/A  HX  91
CRESCENT LAKE    N/A     87  54  32 S9G18       N/A
LISCO            N/A     91  37  14 SE14        N/A
BIG SPRINGS      N/A     85  60  43 S6          N/A
$$

...OBSERVATIONS IN NORTH CENTRAL NEBRASKA...

CITY           SKY/WX    TMP DP  RH WIND       PRES   REMARKS
VALENTINE      SUNNY     85  61  44 SE18G26   29.79F
THEDFORD       SUNNY     85  61  44 S17G24    29.84F
AINSWORTH      SUNNY     81  62  53 SE14G20   29.83F
O`NEILL        SUNNY     81  64  55 SE9G17    29.85F
ORD            MOSUNNY   80  64  58 S13G21    29.85F
BROKEN BOW     SUNNY     82  65  56 SE16G24   29.86F
SPRINGVIEW       N/A     81  63  54 SE12        N/A
ROSE             N/A     83  68  59 E16         N/A
NEWPORT          N/A     81  61  51 S13         N/A
COMSTOCK         N/A     86  69  55 S15         N/A  HX  90
CHAMBERS         N/A     80  61  52 S10         N/A
EWING            N/A     80  67  63 MISG        N/A
$$

...OBSERVATIONS IN SOUTHWEST NEBRASKA AND FAR NORTHEAST COLORADO...

CITY           SKY/WX    TMP DP  RH WIND       PRES   REMARKS
WRAY             N/A     91  46  20 S14G21    29.87F
HOLYOKE        FAIR      88  52  29 S10G17    29.86F
IMPERIAL       SUNNY     89  50  26 S16G23    29.85F
OGALLALA       SUNNY     86  55  34 S10       29.83F
NORTH PLATTE   SUNNY     84  60  44 S12       29.84F
MCCOOK         SUNNY     92  55  28 SW10      29.84F HX  90
LEXINGTON      SUNNY     84  65  52 SE10G18   29.86F
PAXTON           N/A     86  61  42 S14         N/A
SUTHERLAND       N/A     89  58  34 S10         N/A
BRADY            N/A     85  63  47 CALM        N/A
GOTHENBURG       N/A     82  60  46 SE10        N/A
CALLAWAY         N/A     80  68  67 S16         N/A
$$

...SOME WEATHER OBSERVATIONS FROM AROUND THE REGION...

CITY           SKY/WX    TMP DP  RH WIND       PRES   REMARKS
DENVER         MOSUNNY   82  39  21 S7        29.93F
LARAMIE        LGT RAIN  62  46  55 S12G40    30.07R
CHEYENNE       MOSUNNY   81  41  24 S17G26    29.96F
SCOTTSBLUFF    MOSUNNY   92  45  19 SW17      29.78F
RAPID CITY     SUNNY     87  52  29 S17G26    29.69F
PIERRE         SUNNY     79  60  52 E16       29.75F
WINNER         FAIR      81  61  50 SE16G25   29.79F
SIOUX FALLS    MOSUNNY   70  60  70 SW5       29.88F
OMAHA          MOSUNNY   81  64  56 SE8       29.88F
GRAND ISLAND   SUNNY     82  66  58 SE14      29.88F
KANSAS CITY    MOSUNNY   85  66  53 W5        29.89F
WICHITA        MOSUNNY   93  56  28 VRB3      29.88F HX  91
HAYS           MOSUNNY   93  55  27 S18       29.87F HX  91
LIBERAL        SUNNY     97  48  19 S13G26    29.91F HX  93
GOODLAND       SUNNY     89  49  25 S13       29.89F
$$



USA.gov is the U.S. government's official web portal to all federal, state and local government web resources and services.